[[{"header":{"parameterUnit":"m.s-1","parameterCategory":1,"la1":30.2991,"la2":30.254,"lo1":-89.0895,"lo2":-89.0444,"dy":0.0017,"dx":0.0017,"nx":28,"ny":28,"refTime":"2023-08-26T09:00:00:Z","depth":0,"parameterNumber":2,"parameterNumberName":"U-component_of_WINDS"},"data":[0,0,0,0,0,0,0,0,0,0,0,0,0,0,0,0,0,0,0,0,0,0,0,0,0,0,0,0,0,0,0,0,0,0,0,0,0,0,0,0,0,0,0,0,0,0,0,0,0,0,0,0,0,0,0,0,0,0,0.1997,0.1998,0,0.21,0.2101,0.2102,0.2062,0.206,0.2057,0.2055,0.217,0.2175,0.218,0,0,0,0,0,0,0,0,0,0,0,0,0,0.1774,0.1778,0.1997,0.1998,0.1999,0.21,0.2101,0.2103,0.2063,0.206,0.2057,0.2054,0.2168,0.2174,0.2181,0,0,0,0,0,0,0,0,0,0,0,0,0,0.1874,0.178,0.1996,0.1991,0.1992,0.21,0.2101,0.2103,0.2063,0.206,0.2056,0.2053,0.2166,0.2174,0.2181,0.2303,0,0,0.2206,0.2209,0,0,0,0,0,0,0,0,0.1868,0.1882,0.1991,0.1992,0.1992,0.2064,0.2065,0.2171,0.2064,0.2036,0.2055,0.2051,0.2138,0.2148,0.2176,0.2309,0.2314,0.2206,0.2211,0.2215,0.2217,0,0,0,0,0,0,0,0.1861,0.1877,0.2038,0.1992,0.1993,0.1987,0.1997,0.2085,0.2107,0.2039,0.2036,0.2048,0.2138,0.2168,0.2178,0.2315,0.2206,0.2213,0.2218,0.2221,0.2558,0.2562,0,0,0,0,0,0,0.1853,0.1872,0.2034,0.2041,0.192,0.1994,0.2005,0.2045,0.2106,0.2111,0.2051,0.2046,0.2156,0.2169,0.2182,0.2332,0.2215,0.2222,0.2227,0.2554,0.2559,0.2563,0,0,0,0,0,0,0.1848,0.1868,0.203,0.1956,0.1976,0.2001,0.2047,0.2049,0.2079,0.2115,0.212,0.2077,0.2154,0.2171,0.2274,0.2335,0.2226,0.2233,0.2549,0.2555,0.2561,0.2631,0,0,0,0,0,0,0.1842,0.1866,0.191,0.1957,0.198,0.2118,0.205,0.2054,0.2092,0.2086,0.2141,0.2147,0.2152,0.2262,0.2282,0.2344,0.2239,0.2543,0.2552,0.2559,0.2623,0.2639,0.2652,0,0,0,0,0,0.1834,0.1927,0.1913,0.1933,0.2035,0.2121,0.2135,0.2137,0.2097,0.2144,0.2167,0.2145,0.2324,0.2273,0.2295,0.2361,0.254,0.2549,0.2558,0.2617,0.2636,0.2652,0,0,0,0,0,0,0.189,0.1933,0.1918,0.2028,0.2071,0.2114,0.2173,0.2157,0.2214,0.2207,0.221,0.2223,0.233,0.2355,0.2297,0.2484,0.2427,0.2441,0.2464,0.2482,0.2496,0.249,0.2246,0,0,0,0,0,0.1914,0.1978,0.2013,0.2107,0.2129,0.2147,0.2185,0.2183,0.2229,0.2248,0.2278,0.2327,0.2394,0.2439,0.2503,0.2626,0.264,0.2682,0.2696,0.2708,0.2722,0.2793,0.2813,0.2594,0.2594,0.2594,0,0,0.1967,0.1998,0.2039,0.2119,0.2152,0.2221,0.2163,0.2238,0.229,0.226,0.2359,0.2384,0.2438,0.2552,0.2604,0.2577,0.2785,0.272,0.2729,0.2736,0.2805,0.2825,0.2844,0.26,0.2599,0.2598,0,0,0.2099,0.2127,0.221,0.2244,0.2294,0.2306,0.2326,0.2372,0.2387,0.2485,0.2465,0.2529,0.2644,0.2685,0.272,0.2869,0.2852,0.2889,0.2966,0.3035,0.3053,0.3068,0.3125,0.3145,0.2902,0.2902,0.2902,0,0.2159,0.2259,0.2255,0.2332,0.2371,0.2343,0.243,0.2464,0.2534,0.2562,0.2529,0.2675,0.2709,0.2835,0.2871,0.2899,0.2926,0.2885,0.305,0.3065,0.308,0.3135,0.3156,0.2907,0.2906,0.2906,0.2905,0,0.2333,0.2403,0.2464,0.253,0.2575,0.2656,0.2668,0.2714,0.2709,0.2725,0.2829,0.2868,0.2942,0.297,0.2966,0.3097,0.3079,0.3048,0.2991,0.3105,0.3157,0.3178,0.2913,0.2912,0.291,0.2909,0,0,0.2504,0.2567,0.259,0.2621,0.2675,0.2731,0.2812,0.2881,0.2923,0.2972,0.3044,0.3142,0.3115,0.3155,0.3155,0.3216,0.3336,0.3178,0.318,0.321,0.3487,0.3513,0.3537,0.3324,0.3328,0.3331,0.3484,0,0.2643,0.2784,0.2784,0.2915,0.2983,0.2958,0.303,0.3073,0.309,0.3153,0.3173,0.3244,0.32,0.3225,0.3283,0.3309,0.3393,0.3297,0.3395,0.3399,0.3386,0.3563,0.359,0.3733,0.3504,0.3507,0.351,0,0.2825,0.2878,0.3016,0.3062,0.309,0.3155,0.322,0.3277,0.3327,0.3336,0.3382,0.3373,0.3461,0.3398,0.3521,0.3456,0.3496,0.3515,0.3521,0.3533,0.3464,0.3585,0.3778,0.3802,0.3541,0.3538,0.3536,0,0.2942,0.3048,0.3145,0.3171,0.3227,0.3273,0.3299,0.3344,0.3387,0.3444,0.3473,0.354,0.3578,0.3633,0.3644,0.3597,0.3769,0.3706,0.3783,0.3783,0.3823,0.3821,0.403,0.3842,0.3842,0.3841,0.3841,0,0.3099,0.3186,0.3198,0.3258,0.3356,0.3356,0.3453,0.3475,0.3516,0.3583,0.3566,0.363,0.3639,0.3706,0.3716,0.3819,0.3835,0.3848,0.385,0.3852,0.3851,0.3881,0.3873,0.3847,0.3846,0.3845,0.3844,0,0.3248,0.3259,0.3364,0.3407,0.342,0.349,0.3529,0.3589,0.3603,0.3689,0.3709,0.3735,0.3813,0.3828,0.3922,0.3928,0.4052,0.4042,0.4035,0.4036,0.4112,0.4107,0.4351,0.4385,0.4171,0.4173,0.4175,0,0.335,0.3415,0.3465,0.3508,0.3535,0.3603,0.3646,0.3649,0.3696,0.3758,0.3811,0.3887,0.3948,0.4075,0.4104,0.4176,0.4171,0.4252,0.4182,0.4183,0.4178,0.4175,0.4184,0.4267,0.4269,0.4271,0.4272,0,0.3531,0.3533,0.3594,0.3658,0.3709,0.376,0.3809,0.3845,0.3856,0.3909,0.3988,0.4035,0.4129,0.4207,0.4279,0.4309,0.4295,0.4293,0.4316,0.432,0.4315,0.4323,0.4076,0.4289,0.4287,0.4286,0.4285,0.4284,0.3662,0.3721,0.3765,0.3835,0.3871,0.3917,0.3976,0.3998,0.4063,0.4139,0.4137,0.4225,0.4275,0.437,0.4405,0.4476,0.4451,0.4482,0.4491,0.45,0.4509,0.43,0.4489,0.4488,0.4488,0.4487,0.4487,0,0.3846,0.3874,0.3937,0.4005,0.4061,0.4037,0.4091,0.414,0.4216,0.4263,0.4323,0.4416,0.4491,0.4526,0.4601,0.4651,0.4647,0.4672,0.467,0.4678,0.4525,0.45,0.4674,0.4674,0.4674,0.4674,0.4674,0.4674,0.3949,0.4048,0.4056,0.4174,0.4202,0.4285,0.4318,0.4362,0.44,0.4503,0.4564,0.4585,0.4629,0.4707,0.4776,0.4785,0.4816,0.4844,0.485,0.4707,0.4688,0.4671,0.4647,0.485,0.485,0.4998,0.5,0.5001]},{"header":{"parameterUnit":"m.s-1","parameterCategory":1,"la1":30.2991,"la2":30.254,"lo1":-89.0895,"lo2":-89.0444,"dy":0.0017,"dx":0.0017,"nx":28,"ny":28,"refTime":"2023-08-26T09:00:00:Z","depth":0,"parameterNumber":3,"parameterNumberName":"V-component_of_WINDS"},"data":[0,0,0,0,0,0,0,0,0,0,0,0,0,0,0,0,0,0,0,0,0,0,0,0,0,0,0,0,0,0,0,0,0,0,0,0,0,0,0,0,0,0,0,0,0,0,0,0,0,0,0,0,0,0,0,0,0,0,-1.2834,-1.2833,0,-1.2678,-1.2676,-1.2674,-1.2704,-1.2707,-1.2709,-1.2712,-1.2548,-1.2541,-1.2535,0,0,0,0,0,0,0,0,0,0,0,0,0,-1.3157,-1.3151,-1.2834,-1.2832,-1.283,-1.2678,-1.2676,-1.2674,-1.2703,-1.2707,-1.271,-1.2713,-1.2551,-1.2542,-1.2534,0,0,0,0,0,0,0,0,0,0,0,0,0,-1.301,-1.3149,-1.2835,-1.2827,-1.2825,-1.2679,-1.2676,-1.2673,-1.2703,-1.2707,-1.2711,-1.2715,-1.2553,-1.2543,-1.2533,-1.2383,0,0,-1.2501,-1.2496,0,0,0,0,0,0,0,0,-1.3019,-1.2999,-1.283,-1.2827,-1.2824,-1.2715,-1.273,-1.2576,-1.2702,-1.2749,-1.2712,-1.2717,-1.26,-1.2586,-1.2547,-1.2376,-1.2369,-1.25,-1.2493,-1.2489,-1.2486,0,0,0,0,0,0,0,-1.3029,-1.3005,-1.2772,-1.2828,-1.2824,-1.2831,-1.2815,-1.2701,-1.2652,-1.2745,-1.2747,-1.2728,-1.2599,-1.2557,-1.2544,-1.2366,-1.25,-1.2491,-1.2484,-1.248,-1.2068,-1.2064,0,0,0,0,0,0,-1.3042,-1.3014,-1.2777,-1.2768,-1.2934,-1.2822,-1.2803,-1.2746,-1.2654,-1.2644,-1.2725,-1.273,-1.2573,-1.2556,-1.2538,-1.236,-1.2489,-1.2479,-1.2473,-1.2073,-1.2067,-1.2062,0,0,0,0,0,0,-1.3049,-1.3021,-1.2784,-1.2891,-1.2862,-1.2812,-1.2746,-1.274,-1.2698,-1.2638,-1.263,-1.2691,-1.2576,-1.2553,-1.2423,-1.2354,-1.2474,-1.2465,-1.2078,-1.2071,-1.2065,-1.2,0,0,0,0,0,0,-1.3058,-1.3023,-1.2966,-1.289,-1.2856,-1.2671,-1.2742,-1.2734,-1.2681,-1.2686,-1.2604,-1.2595,-1.2577,-1.2438,-1.2412,-1.2342,-1.2457,-1.2084,-1.2075,-1.2067,-1.2008,-1.1992,-1.1978,0,0,0,0,0,-1.3069,-1.2952,-1.2963,-1.2934,-1.2783,-1.2667,-1.2647,-1.2631,-1.2675,-1.2617,-1.2579,-1.2597,-1.2366,-1.2425,-1.2396,-1.2321,-1.2089,-1.2078,-1.2068,-1.2015,-1.1995,-1.1978,0,0,0,0,0,0,-1.3019,-1.2942,-1.2953,-1.2807,-1.2744,-1.2672,-1.2599,-1.261,-1.2531,-1.2539,-1.2521,-1.2502,-1.2371,-1.2333,-1.24,-1.2174,-1.2234,-1.2217,-1.2203,-1.2184,-1.2169,-1.2181,-1.2448,0,0,0,0,0,-1.2991,-1.2904,-1.2841,-1.2719,-1.2687,-1.2648,-1.2597,-1.259,-1.2523,-1.2496,-1.2448,-1.2381,-1.2294,-1.2237,-1.2153,-1.2003,-1.1987,-1.1938,-1.1923,-1.191,-1.1896,-1.1817,-1.1796,-1.2028,-1.2028,-1.2028,0,0,-1.2932,-1.288,-1.2825,-1.2708,-1.2658,-1.2568,-1.2625,-1.2527,-1.246,-1.248,-1.2356,-1.2319,-1.2243,-1.2104,-1.204,-1.2068,-1.1829,-1.1897,-1.1888,-1.188,-1.1804,-1.1782,-1.1763,-1.2021,-1.2022,-1.2023,0,0,-1.278,-1.273,-1.2625,-1.2575,-1.2499,-1.2475,-1.245,-1.2377,-1.2354,-1.2229,-1.2243,-1.2163,-1.2012,-1.1959,-1.1912,-1.1744,-1.1758,-1.1717,-1.1638,-1.1561,-1.1543,-1.1526,-1.1468,-1.1448,-1.1703,-1.1703,-1.1702,0,-1.2716,-1.2582,-1.2569,-1.247,-1.2419,-1.2435,-1.2329,-1.228,-1.218,-1.2144,-1.2178,-1.1992,-1.1942,-1.1792,-1.1751,-1.1712,-1.1683,-1.1726,-1.1546,-1.153,-1.1515,-1.1459,-1.1437,-1.1698,-1.1699,-1.1699,-1.17,0,-1.2508,-1.2416,-1.2339,-1.2246,-1.2185,-1.2083,-1.2055,-1.1995,-1.1995,-1.1967,-1.1841,-1.1782,-1.1689,-1.1652,-1.1649,-1.1502,-1.1523,-1.1551,-1.1611,-1.1488,-1.1436,-1.1415,-1.1692,-1.1693,-1.1695,-1.1696,0,0,-1.2317,-1.2221,-1.2193,-1.2152,-1.2072,-1.1999,-1.1899,-1.1809,-1.176,-1.1691,-1.1607,-1.1481,-1.1508,-1.1455,-1.1446,-1.1379,-1.1252,-1.1416,-1.1414,-1.139,-1.109,-1.107,-1.1046,-1.1262,-1.1258,-1.1254,-1.1097,0,-1.2159,-1.1983,-1.197,-1.1811,-1.1727,-1.1742,-1.1655,-1.1597,-1.1569,-1.1493,-1.1462,-1.1374,-1.1415,-1.1384,-1.1318,-1.1282,-1.1192,-1.1293,-1.1184,-1.1181,-1.1204,-1.1018,-1.0996,-1.085,-1.1077,-1.1073,-1.107,0,-1.195,-1.1878,-1.1712,-1.1647,-1.1611,-1.1533,-1.1451,-1.1378,-1.1313,-1.1297,-1.124,-1.1242,-1.1139,-1.1203,-1.1063,-1.1132,-1.1087,-1.1063,-1.1057,-1.1047,-1.1119,-1.1005,-1.0803,-1.0782,-1.1038,-1.104,-1.1043,0,-1.183,-1.1692,-1.1575,-1.1539,-1.146,-1.1405,-1.1369,-1.1308,-1.1256,-1.1185,-1.1151,-1.1068,-1.1022,-1.0958,-1.0938,-1.0986,-1.0799,-1.086,-1.0784,-1.0785,-1.0745,-1.0748,-1.0535,-1.0713,-1.0713,-1.0714,-1.0714,0,-1.1655,-1.1553,-1.1521,-1.1449,-1.1337,-1.1323,-1.1211,-1.1178,-1.1124,-1.1047,-1.1055,-1.0982,-1.0959,-1.0882,-1.0866,-1.0754,-1.0732,-1.0718,-1.0715,-1.0718,-1.072,-1.0689,-1.0699,-1.0708,-1.0709,-1.071,-1.0711,0,-1.1502,-1.1476,-1.1351,-1.1287,-1.1269,-1.1189,-1.1134,-1.1066,-1.1041,-1.0943,-1.0919,-1.0879,-1.079,-1.0764,-1.0655,-1.0644,-1.0514,-1.0519,-1.0536,-1.0537,-1.0463,-1.0471,-1.0224,-1.0192,-1.039,-1.0388,-1.0386,0,-1.1393,-1.1316,-1.1245,-1.1195,-1.1157,-1.1076,-1.1024,-1.1008,-1.0953,-1.0875,-1.0816,-1.0729,-1.0658,-1.0515,-1.0476,-1.0394,-1.0399,-1.0318,-1.0386,-1.0393,-1.04,-1.0406,-1.0399,-1.0305,-1.0303,-1.0301,-1.03,0,-1.1202,-1.1194,-1.112,-1.1041,-1.098,-1.0917,-1.0856,-1.0814,-1.079,-1.0728,-1.0639,-1.0584,-1.0476,-1.0389,-1.0307,-1.027,-1.0281,-1.0279,-1.0257,-1.026,-1.0275,-1.0268,-1.0503,-1.0284,-1.0286,-1.0287,-1.0288,-1.0288,-1.1069,-1.1002,-1.0943,-1.0861,-1.0814,-1.0759,-1.0692,-1.066,-1.0585,-1.0497,-1.0492,-1.0395,-1.0335,-1.0226,-1.0185,-1.011,-1.0133,-1.0101,-1.0094,-1.0087,-1.0082,-1.0286,-1.0094,-1.0095,-1.0095,-1.0095,-1.0096,0,-1.0881,-1.0845,-1.0769,-1.0686,-1.0622,-1.0639,-1.0574,-1.0519,-1.0434,-1.0378,-1.0309,-1.0207,-1.0124,-1.0081,-0.9998,-0.9947,-0.995,-0.9926,-0.993,-0.9922,-1.0064,-1.0092,-0.9925,-0.9925,-0.9925,-0.9925,-0.9925,-0.9925,-1.0775,-1.0665,-1.065,-1.0517,-1.0481,-1.0388,-1.035,-1.0299,-1.0254,-1.0141,-1.0073,-1.0046,-0.9995,-0.991,-0.9835,-0.9824,-0.9795,-0.9768,-0.976,-0.9894,-0.9911,-0.9928,-0.9955,-0.9761,-0.9761,-0.9625,-0.9624,-0.9623]}]]